Regional Weather Roundup
Issued by NWS Wakefield, VA

Home | Current Version | Previous Version | Graphics & Text | Print | Product List | Glossary On
Versions: 1 2 3 4 5 6 7 8 9 10 11 12 13 14 15 16 17 18 19 20 21 22 23 24 25 26 27 28 29 30 31 32 33 34 35 36 37 38 39 40 41 42 43 44 45 46 47 48 49 50
000
ASUS41 KAKQ 261915
RWRAKQ

REGIONAL WEATHER ROUNDUP
NATIONAL WEATHER SERVICE WAKEFIELD VA
300 PM EDT TUE MAY 26 2015

Note: "fair" indicates few or no clouds below 12,000 feet with no
significant weather and/or obstructions to visibility. * = Denotes
station may not report precipitation (e.g., rain,snow,etc.),
thunder or fog.

VAZ042-051-052>054-056-262000-
NORTHERN VIRGINIA

CITY           SKY/WX    TMP DP  RH WIND       PRES   REMARKS
WASH NATIONAL  CLOUDY    87  68  52 S14G21    30.18F
DULLES         PTSUNNY   84  65  52 SW9       30.18F
FORT BELVOIR   MOSUNNY   85  66  52 S8        30.18F
QUANTICO       PTSUNNY   81  69  67 S12       30.19F
FREDERICKSBRG* MOSUNNY   88  68  50 S10       30.18F
STAFFORD*      MOSUNNY   85  64  47 S6        30.23S
WARRENTON      MOSUNNY   87  70  57 SE5       30.18F
CULPEPER*      PTSUNNY   86  67  52 S5        30.18F
MANASSAS*      PTSUNNY   84  66  54 S8        30.19
LEESBURG*      PTSUNNY   86  68  54 S6        30.19F
WINCHESTER     CLOUDY    82  57  42 SE5       30.19F
FRONT ROYAL*   FAIR      82  68  61 SE5       30.18F
LURAY*         FAIR      88  64  45 SW3       30.19F
$$

VAZ048-049-060>072-079>083-262000-
CENTRAL AND SOUTH CENTRAL VIRGINIA

CITY           SKY/WX    TMP DP  RH WIND       PRES   REMARKS
RICHMOND       CLOUDY    86  66  51 SW10G18   30.22F
CHESTERFIELD*  NOT AVBL
PETERSBURG*    CLOUDY    85  71  62 SW7       30.24
HANOVER        PTSUNNY   84  67  56 SW12      30.23F
TAPPAHANNOCK*  MOSUNNY   86  61  43 S7        30.22F
QUINTON*       FAIR      84  67  56 S5        30.22F
CHARLOTTSVILLE MOSUNNY   86  66  51 S8        30.19F
GORDONSVILLE*  FAIR      84  68  57 SW8       30.18F
ORANGE*        MOSUNNY   88  68  51 SE8       30.21S
LOUISA*        MOSUNNY   86  70  58 S10G16    30.20F
BUMPASS*       MOCLDY    84  68  59 SW12      30.20F
FARMVILLE*     PTSUNNY   85  67  55 S8        30.20F
CREWE*         MOCLDY    84  67  55 S8        30.23F
FORT PICKETT*  MOCLDY    82  68  61 S10G16    30.25S
CHASE CITY*    CLOUDY    86  70  58 S3        30.23F
CLARKSVILLE*   CLOUDY    81  66  61 S8        30.23F
SOUTH HILL*    CLOUDY    82  66  57 CALM      30.30F
LAWRENCEVILLE* CLOUDY    82  68  61 S7        30.24F
EMPORIA*       MOSUNNY   84  63  48 S6        30.26F
$$

VAZ088>098-262000-
SOUTHEAST VIRGINIA

CITY           SKY/WX    TMP DP  RH WIND       PRES   REMARKS
NORFOLK        SUNNY     86  56  35 SW14      30.25F
VIRGINIA BEACH MOSUNNY   81  66  60 SE14      30.26F
NORFOLK NAVAL  PTSUNNY   89  59  36 S8        30.26F
WEST POINT*    MOSUNNY   87  60  40 S10       30.24F
SALUDA*        FAIR      84  65  52 SW8       30.22F
NEWPORT NEWS   SUNNY     88  63  43 S12G20    30.24F
LANGLEY AFB    SUNNY     84  64  50 S9        30.23F
FORT EUSTIS    SUNNY     83  64  53 S7        30.22F
WILLIAMSBURG*  SUNNY     90  66  45 S10       30.24F
HR EXEC AP*    FAIR      84  63  48 SW7       30.26F
FRANKLIN*      MOSUNNY   85  64  48 S8        30.25F
WAKEFIELD      MOSUNNY   85  65  51 S8        30.24F
$$

VAZ020-022-025-037-045-262000-
WEST CENTRAL AND SOUTHWEST VIRGINIA

CITY           SKY/WX    TMP DP  RH WIND       PRES   REMARKS
STAUNTON*      FAIR      84  60  44 W6        30.23F
WAYNESBORO*    FAIR      83  64  52 SW3       30.23F
HOT SPRINGS VA CLOUDY    70  62  75 SE6       30.32F
LYNCHBURG      PTSUNNY   83  66  56 S14G23    30.23F
DANVILLE       PTSUNNY   85  65  51 VRB6      30.23F
SOUTH BOSTON*  CLOUDY    83  66  56 MISG      30.23F
MARTINSVILLE   PTSUNNY   85  64  49 SW5       30.25F
ROANOKE        PTSUNNY   84  64  50 S13G22    30.21F
BLACKSBURG       N/A    N/A N/A N/A MISG        N/A
DUBLIN*        CLOUDY    80  62  52 W12G18    30.28R
MARION*        HVY RAIN  68  65  90 W6        30.31S
HILLSVILLE*    MOSUNNY   76  64  67 S10G18    30.30F
RICHLANDS*     FAIR      79  63  57 S8        30.26F
WISE*          PTSUNNY   79  59  50 S10       30.25F
ABINGDON*      PTSUNNY   83  64  53 SW5       30.23F
$$

MDZ021>025-VAZ099-100-262000-
SOUTHERN MARYLAND AND THE DELMARVA PENINSULA

CITY           SKY/WX    TMP DP  RH WIND       PRES   REMARKS
PATUXENT RIVER PTSUNNY   79  66  64 SE12G22   30.21F
BAY BRIDGE APT   N/A    N/A N/A N/A S13       30.20F
LEONARDTOWN    PTSUNNY   82  64  54 S10       30.22F
DOVER          MOSUNNY   87  68  52 SW14G23   30.17F
GEORGETOWN     PTSUNNY   85  63  47 S13G21    30.22F
EASTON         MOSUNNY   84  68  58 SW13      30.24F
CAMBRIDGE      SUNNY     81  64  57 S12G20    30.21F
SALISBURY      SUNNY     84  62  47 S16G23    30.23F
OCEAN CITY     SUNNY     73  63  70 S10G21    30.26F
WALLOPS ISLAND SUNNY     77  66  68 S17       30.27F
ACCOMACK*      SUNNY     79  64  61 S17       30.26F
$$

NCZ012>017-030>032-262000-
NORTH CENTRAL AND EASTERN NORTH CAROLINA

CITY           SKY/WX    TMP DP  RH WIND       PRES   REMARKS
ROANOKE RAPIDS MOCLDY    86  64  48 S7G16     30.25F
RALEIGH        MOSUNNY   86  66  51 S8        30.24F
ELIZABETH CITY MOSUNNY   83  65  54 SW10      30.27F
AHOSKIE*       MOSUNNY   83  64  51 S12       30.25F
EDENTON*         N/A     84  65  52 S6        30.27F
CURRITUCK*     MOSUNNY   84  60  44 S8        30.28F
KILL DEVIL HLS MOSUNNY   79  66  63 S9G21     30.28F
MANTEO         MOSUNNY   77  66  70 S18G25    30.30F
CAPE HATTERAS  SUNNY     80  64  58 S14       30.32F
TARBORO*       MOCLDY    87  65  48 SW6       30.26F
GOLDSBORO      MOSUNNY   88  69  54 SE7       30.22F
WASHINGTON     MOSUNNY   85  66  51 SW7       30.27S
GREENVILLE     MOSUNNY   88  64  45 SW6       30.26F
NEW BERN       MOSUNNY   86  67  52 S14       30.28F
WILMINGTON     CLOUDY    80  70  71 SE12G22   30.27F
$$

VAZ048-262000-
ELSEWHERE

CITY           SKY/WX    TMP DP  RH WIND       PRES   REMARKS
HARRISBURG PA  PTSUNNY   85  63  47 SW8       30.15F
BALTIMORE      PTSUNNY   86  64  47 S10G17    30.17F
ANNAPOLIS      MOSUNNY   81  68  64 S12       30.19F
ANDREWS AFB    MOSUNNY   85  68  57 SW10      30.19F
PHILADELPHIA   PTSUNNY   88  62  41 SW16      30.18F
HENDERSON NC   PTSUNNY   84  62  48 CALM      30.25F
GREENSBORO     PTSUNNY   84  62  47 S12       30.23F
ROCKY MOUNT    PTSUNNY   87  67  51 SW8       30.25F
$$

VAZ100-262000-
MARINE

STATION/POSITION TIME  TEMP    WIND        PRES    WAVE   SWELL
                       AIR SEA DIR/SP/G            HT/PER HT/PER
                 (UTC) (F)     (DEG/KT/KT) (MB)    (FT/S) (FT/S)
15NM E FENWICK I 1850   65 62              1024.0F   2/ 3
THOMAS POINT MD  1900   73 68  170/ 18/ 19 1022.7F
CHESAPEAKE LGHT  1800   69     150/ 20/ 20 1026.1F
64NM E OF VA BCH 1850   68 65  170/ 12/ 14 1026.2F   3/ 5   2/ 8
DIAMOND SHLS NC  1850   75 77  160/ 14/ 17 1026.7F   3/ 6   2/ 7
CAPE LOOKOUT NC  1800   75     150/ 13/ 14 1026.3F
$$



USA.gov is the U.S. government's official web portal to all federal, state and local government web resources and services.